Starlink 5681

operational
NORAD ID: 55469 Int'l Des: 2023-015 Owner: SPXS Country: US Constellation: starlink
LEOCIRCULAR

Über Starlink 5681

Beschreibung wird geladen...

Live-Position

3D-Globus wird geladen...

Nächste Überflüge

Höhenverlauf

Altitude vs Time

uPlot chart will show altitude changes over time

Zweizeiliger Elementsatz

1 55469U 23015W 25351.24512198 .00000910 00000-0 82439-4 0 9998
2 55469 43.0052 53.8465 0001344 273.7827 86.2861 15.02539498158353
Epoch: 17. Dez. 2025 • Age: 15 hours

Aktueller Status

Höhe 559.2 km
Geschwindigkeit 7.59 km/s
Subsatellitenpunkt 23.47°N, 45.44°E
Startdatum 2. Feb. 2023
Alter 2.8 years
Typ internet

Technische Details

Klassifizierung Payload
Masse 305.00 kg
Trockenmasse 290.00 kg
Gesamtmasse 305.00 kg
Länge 0.20 m
Durchmesser 2.80 m
Spannweite 9.00 m
Form Box + pan
Hersteller SPXS
Bus-Typ Starlink
Phasenstatus In Orbit
Besitzer/Staat SPXS/US

Große Konstellationen

Loading constellations...